Location: Unspecified
(0.0000°N, 0.0000°E)
Time: 05:10:50
(UTC+00:00)

ISS - Pass Details

Date: 14 July 2024
Orbit: 409 x 423 km, 51.6° (Epoch: 24 July)

Event Time Altitude Azimuth Distance (km) Brightness Sun altitude
Exits shadow 04:29:33 48° 117° (ESE) 556 -3.0 -22.3°
Drops below altitude 10° 04:32:09 10° 138° (SE) 1,500 -0.7 -21.7°
Sets 04:34:16 0° 141° (SE) 2,368 0.3 -21.2°
